Volver al catálogo

BREEZE-M DEB

LostHEO
NORAD 34258·DEBRIS·🇷🇺 Russia

Lanzado Feb 28, 2006 desde Baikonur Cosmodrome

Loading…

Próximos Pases (próximas 24 horas)

TLE

ObsoletoSource: Space-Track

Época: Aug 13, 2022, 05:29 UTC

1 34258U 06006BZ  22225.22863971  .00000592  00000-0  11984-2 0  9996
2 34258  51.8999 213.7018 5068452 209.6597 108.3077  5.24337819270945

Sigue BREEZE-M DEB en tiempo real con AllMySat

Download on the App Store